Change the Weather History Date:

Friday, September 13, 2013

  Actual Average (LFTH) Record (LFTH)
Temperature  
Mean Temperature 68 °F -  
Max Temperature 80 °F 72 °F 84 °F (2010)
Min Temperature 55 °F 57 °F 50 °F (2001)
Cooling Degree Days 2    
Growing Degree Days 18 (Base 50)    
Moisture  
Dew Point 45 °F    
Average Humidity 46    
Maximum Humidity 63    
Minimum Humidity 26    
Precipitation  
Precipitation 0.00 in - - ()
Sea Level Pressure  
Sea Level Pressure 30.04 in    
Wind  
Wind Speed 5 mph ()    
Max Wind Speed 10 mph    
Max Gust Speed -    
Visibility 6.2 miles    
Events      
Averages and records for this station are not official NWS values.
T = Trace of Precipitation, MM = Missing Value Source: Averaged Metar Reports

Daily Weather History Graph

Daily Weather History Graph

Search for Another Location

Airport or City:

Trip Planner

Search our weather history database for the weather conditions in past years. The results will help you decide how hot, cold, wet, or windy it might be!

Date:

Astronomy

Sep. 13, 2013 Rise Set
Actual Time 7:11 AM CEST 7:48 PM CEST
Civil Twilight 6:42 AM CEST 8:16 PM CEST
Nautical Twilight 6:08 AM CEST 8:50 PM CEST
Astronomical Twilight 5:33 AM CEST 9:25 PM CEST
Moon 3:30 PM CEST (9/13) 12:17 AM CEST (9/13)
Length of Visible Light 13h 33m
Length of Day
12h 36m
First Quarter, 58% of the Moon is Illuminated
Sep 13
First Quarter
Sep 19
Full
Sep 27
Last Quarter
Oct 5
New
Oct 12
First Quarter

Hourly Weather History & Observations

Time (CEST) Temp. Dew Point Humidity Pressure Visibility Wind Dir Wind Speed Gust Speed Precip Events Conditions
12:00 AM 62.6 °F 41.0 °F 45% 30.01 in 6.2 mi WSW 3.5 mph - N/A   Unknown
12:30 AM 62.6 °F 41.0 °F 45% 30.01 in 6.2 mi WSW 6.9 mph - N/A   Unknown
1:00 AM 62.6 °F 41.0 °F 45% 30.01 in 6.2 mi SW 6.9 mph - N/A   Unknown
1:30 AM 60.8 °F 41.0 °F 48% 30.01 in 6.2 mi SW 4.6 mph - N/A   Unknown
2:00 AM 60.8 °F 41.0 °F 48% 30.01 in 6.2 mi SSW 5.8 mph - N/A   Unknown
2:30 AM 59.0 °F 41.0 °F 51% 30.01 in 6.2 mi SSW 4.6 mph - N/A   Unknown
3:00 AM 59.0 °F 41.0 °F 51% 30.01 in 6.2 mi SSW 4.6 mph - N/A   Unknown
3:30 AM 59.0 °F 41.0 °F 51% 30.01 in 6.2 mi SW 5.8 mph - N/A   Unknown
4:00 AM 57.2 °F 41.0 °F 55% 30.01 in 6.2 mi SSW 4.6 mph - N/A   Unknown
4:30 AM 57.2 °F 41.0 °F 55% 30.01 in 6.2 mi SSW 5.8 mph - N/A   Unknown
5:00 AM 57.2 °F 41.0 °F 55% 30.01 in 6.2 mi SW 5.8 mph - N/A   Unknown
5:30 AM 57.2 °F 41.0 °F 55% 30.04 in 6.2 mi SSW 3.5 mph - N/A   Unknown
6:00 AM 55.4 °F 41.0 °F 58% 30.04 in 6.2 mi SW 5.8 mph - N/A   Unknown
6:30 AM 57.2 °F 41.0 °F 55% 30.04 in 6.2 mi WSW 5.8 mph - N/A   Unknown
7:00 AM 55.4 °F 41.0 °F 58% 30.04 in - SW 5.8 mph - N/A   Clear
8:00 AM 57.2 °F 41.0 °F 55% 30.06 in - WSW 4.6 mph - N/A   Clear
10:00 AM 66.2 °F 44.6 °F 46% 30.09 in - West 4.6 mph - N/A   Clear
11:00 AM 69.8 °F 44.6 °F 40% 30.09 in 6.2 mi Variable 3.5 mph - N/A   Mostly Cloudy
12:00 PM 73.4 °F 48.2 °F 41% 30.09 in 6.2 mi Variable 2.3 mph - N/A   Mostly Cloudy
1:00 PM 77.0 °F 50.0 °F 39% 30.09 in 6.2 mi Variable 2.3 mph - N/A   Mostly Cloudy
2:00 PM 78.8 °F 50.0 °F 36% 30.06 in 6.2 mi Variable 2.3 mph - N/A   Mostly Cloudy
3:00 PM 78.8 °F 48.2 °F 34% 30.06 in 6.2 mi SW 4.6 mph - N/A   Mostly Cloudy
4:00 PM 80.6 °F 44.6 °F 28% 30.04 in 6.2 mi WSW 3.5 mph - N/A   Mostly Cloudy
4:30 PM 80.6 °F 44.6 °F 28% 30.04 in 6.2 mi WSW 5.8 mph - N/A   Unknown
5:00 PM 80.6 °F 42.8 °F 26% 30.04 in 6.2 mi South 3.5 mph - N/A   Unknown
5:30 PM 80.6 °F 48.2 °F 32% 30.04 in 6.2 mi WSW 9.2 mph - N/A   Unknown
6:00 PM 78.8 °F 51.8 °F 39% 30.04 in 6.2 mi WSW 8.1 mph - N/A   Unknown
6:30 PM 77.0 °F 51.8 °F 41% 30.04 in 6.2 mi WSW 10.4 mph - N/A   Unknown
7:00 PM 77.0 °F 50.0 °F 39% 30.04 in 6.2 mi SW 4.6 mph - N/A   Unknown
7:30 PM 73.4 °F 48.2 °F 41% 30.04 in 6.2 mi SW 3.5 mph - N/A   Unknown
8:00 PM 71.6 °F 46.4 °F 41% 30.04 in 6.2 mi WSW 5.8 mph - N/A   Unknown
8:30 PM 69.8 °F 46.4 °F 43% 30.06 in 6.2 mi Variable 2.3 mph - N/A   Unknown
9:00 PM 68.0 °F 46.4 °F 46% 30.06 in 6.2 mi Variable 2.3 mph - N/A   Unknown
9:30 PM 68.0 °F 46.4 °F 46% 30.06 in 6.2 mi SW 4.6 mph - N/A   Unknown
10:00 PM 66.2 °F 46.4 °F 49% 30.06 in 6.2 mi West 8.1 mph - N/A   Unknown
10:30 PM 66.2 °F 46.4 °F 49% 30.09 in 6.2 mi WNW 3.5 mph - N/A   Unknown
11:00 PM 62.6 °F 48.2 °F 59% 30.09 in 6.2 mi SE 3.5 mph - N/A   Unknown
11:30 PM 60.8 °F 48.2 °F 63% 30.09 in 6.2 mi Variable 2.3 mph - N/A   Unknown